Regional Weather Roundup
Issued by NWS

Home | Current Version | Previous Version | Graphics & Text | Print | Product List | Glossary On
Versions: 1 2 3 4 5 6 7 8 9 10 11 12 13 14 15 16 17 18 19 20 21 22 23 24 25 26 27 28 29 30 31 32 33 34 35 36 37 38 39 40 41 42 43 44 45 46 47 48 49 50
000
ASUS43 KFSD 240910
RWRSD

WEATHER ROUNDUP FOR SOUTH DAKOTA
NATIONAL WEATHER SERVICE SIOUX FALLS SD
400 AM CDT THU APR 24 2014

NOTE: "FAIR" INDICATES FEW OR NO CLOUDS BELOW 12,000 FEET WITH NO
SIGNIFICANT WEATHER AND/OR OBSTRUCTIONS TO VISIBILITY.


SDZ001>005-009-010-012>017-241000-
NORTHWEST AND NORTH CENTRAL SOUTH DAKOTA

CITY           SKY/WX    TMP DP  RH WIND       PRES   REMARKS
BUFFALO          N/A     36  25  64 W10       29.75S
FAITH            N/A     44  29  55 W14       29.79S
MOBRIDGE       CLOUDY    33  32  96 CALM      29.71F
$$

SDZ012>016-024>037-041>051-057-063-072>074-241000-
SOUTHWEST AND SOUTH CENTRAL SOUTH DAKOTA

CITY           SKY/WX    TMP DP  RH WIND       PRES   REMARKS
RAPID CTY ARPT CLEAR     34  23  64 NW10      29.85R WCI  26
PIERRE         CLOUDY    44  37  76 W10       29.75F
CUSTER         CLEAR     31  16  54 W5        29.87S WCI  26
ELLSWORTH AFB  CLEAR     35  23  59 W9        29.84R WCI  28
PHILIP         CLOUDY    40  32  73 W10       29.82R
PINE RIDGE     PTCLDY    39  34  82 W7        29.87R
SPEARFISH      FAIR      39  18  41 W9        29.86F
WINNER         FAIR      49  36  61 W15       29.75F
$$

SDZ004>011-016>023-039-040-241000-
NORTHEAST SOUTH DAKOTA

CITY           SKY/WX    TMP DP  RH WIND       PRES   REMARKS
ABERDEEN       CLOUDY    39  38  96 CALM      29.72F
WATERTOWN      CLOUDY    41  37  86 E6        29.71S
SISSETON         N/A     40  38  93 SE8       29.74F
$$

SDZ017-020-022-023-036>040-048>070-241000-
SOUTHEAST SOUTH DAKOTA

CITY           SKY/WX    TMP DP  RH WIND       PRES   REMARKS
SIOUX FALLS    LGT RAIN  46  44  93 NE6       29.66R
HURON          CLOUDY    45  41  86 NE5       29.70R
CHAMBERLAIN      N/A     50  38  63 NW16      29.73R
MITCHELL       LGT RAIN  47  43  86 N3        29.69R
YANKTON        CLOUDY    48  48 100 N7        29.66R
$$

ABBREVIATIONS USED IN REMARKS
   TC - TEMPERATURE IN CELSIUS
  WCI - WIND CHILL INDEX
   HX - HEAT INDEX
  VSB - VISIBILITY




USA.gov is the U.S. government's official web portal to all federal, state and local government web resources and services.